CZ-6A DEB, 54900

Orbit data source: Space-Track

CZ-6A DEB, 54900 is space debris in SSO originally from a launch on Fri, 11 Nov 2022 UTC launched from the Taiyaun Space Center, China (TSC). Debris objects in space refer to the collection of defunct objects orbiting the Earth. Examples of debris include non-operational satellites, rocket bodies, and fragments generated from explosions, collisions, or faulty payload assembly.

Loading next visibility...
Identifier
54900, 2022-151QM
Orbit
SSO
Country
Flag of CNCN / PRC
Related business
Manufacturer
SAST
Mission
Spacecraft
Bus & Motor
Unknown
Mass
Unknown
Launch date (UTC)
2022-11-11 (3 years ago)
Launch vehicle
Unknown
Launch site
Taiyaun Space Center, China (TSC)
Object type
Payload
Rocket body
Debris
Shape & HBR
Unknown shape, 0.1 m
Radar Cross Section
Small (<0.1 m²)

Expand to show TLE details & history
Last TLE update: 11 hours ago

TLE from 11 hours ago
0 CZ-6A DEB
1 54900U 22151QM  26130.42029706  .00000563  00000-0  33674-3 0  9991
2 54900  98.8521 127.5131 0094231 140.0408 220.7746 14.08821972176621
Epoch: 2026-05-10T10:05Z
TLE epoch observation values (Epoch: 2026-05-10T10:05:13.665Z)
Latitude
-0.00011°
Longitude
107.98254°
Altitude
918.258 km
Speed
7.366 km/s
True Right ascension
08h 30m 03s
True Declination
0° 00' 00"
Sunlit
Object was in daylight at epoch
Visualization orbit readout
Latitude
Unknown
Longitude
Unknown
Altitude
Unknown
Speed
Unknown
Apparent Right ascension
Unknown
Apparent Declination
Unknown
Sunlit
N/A
Visualization observer readout
Local Sidereal Time
05:31:11
Azimuth
Unknown
Elevation
Unknown
Doppler factor
Unknown
Orbital elements
Apogee altitude
928.797 km
Perigee altitude
792.375 km
Semi-major axis
7,238.723 km
Eccentricity
0.00942
Inclination
98.8521°
RAAN
127.5131°
Arg. of periapsis
140.0408°
True anomaly
220.07565°
Mean anomaly
220.7746°
Eccentric anomaly
220.4245°
Mean motion
3.52412 °/min
Orbital period
102.15 mins
BSTAR
0.00033674
Loading maneuver chart data...
Computing Atmospheric mass density...
Loading historical data...
Loading historical data...
Loading historical data...
Loading historical data...
Loading historical data...
Loading historical data...
Loading historical data...

Documentation

Showing up to 5 results
|